CENTISPACE-1 S8 (62577 NORAD) Tracking and Keplerian Element Data

This shows tracking and keplerian element data for the satellite.

Feedback or suggestion? Click here.




ElementValue
Catalog62577
NameCENTISPACE-1 S8
Epoch Orbit325
Epoch Day35.17090404
Epoch Year2025
RAAN38.0606
Inclination54.9861
Eccentricity0.0017564
Argument of Perigee356.5986
Mean Anonmoly3.4892
Mean Motion14.77553566
Decay Rate3.57E-05
L11 62577U 25007C 25035.17090404 .00003570 00000+0 52449-3 0 9992
L22 62577 54.9861 38.0606 0017564 356.5986 3.4892 14.77553566 3255



Live tracking and technical data element details for CENTISPACE-1 S8 (NORAD 62577). CENTISPACE-1 S8 can be tracked NOW for your location showing map with azimuth and elevation plus other details from your city location.







IsCatalogInMostPopularTable: catalog: 62577, numindb: 16
Update: records affected: 1



GetName: 62577 CENTISPACE-1 S8

Hit Count: updated at: Sun, 18 May 2025 22:29:22 GMT